TimePDT,TemperatureF,Dew PointF,Humidity,Sea Level PressureIn,VisibilityMPH,Wind Direction,Wind SpeedMPH,Gust SpeedMPH,PrecipitationIn,Events,Conditions,WindDirDegrees,DateUTC
12:53 AM,51.1,30.9,46,30.06,10.0,NW,4.6,-,N/A,,Clear,310,2012-10-07 07:53:00
1:53 AM,48.0,34.0,58,30.06,10.0,West,3.5,-,N/A,,Clear,270,2012-10-07 08:53:00
2:53 AM,51.1,35.1,54,30.05,10.0,Variable,4.6,-,N/A,,Clear,0,2012-10-07 09:53:00
3:53 AM,46.9,34.0,61,30.05,10.0,West,3.5,-,N/A,,Clear,280,2012-10-07 10:53:00
4:53 AM,44.1,35.1,71,30.05,10.0,West,4.6,-,N/A,,Clear,280,2012-10-07 11:53:00
5:53 AM,44.1,35.1,71,30.04,10.0,West,5.8,-,N/A,,Clear,270,2012-10-07 12:53:00
6:53 AM,42.1,36.0,79,30.05,10.0,WSW,4.6,-,N/A,,Clear,250,2012-10-07 13:53:00
7:53 AM,44.1,37.9,79,30.06,10.0,West,4.6,-,N/A,,Clear,280,2012-10-07 14:53:00
8:53 AM,51.1,37.9,61,30.06,10.0,West,9.2,-,N/A,,Clear,280,2012-10-07 15:53:00
9:53 AM,55.9,35.1,45,30.05,10.0,WNW,5.8,-,N/A,,Clear,300,2012-10-07 16:53:00
10:53 AM,61.0,33.1,35,30.04,10.0,West,5.8,-,N/A,,Clear,280,2012-10-07 17:53:00
11:53 AM,66.0,33.1,29,30.01,10.0,NW,5.8,-,N/A,,Clear,310,2012-10-07 18:53:00
12:53 PM,69.1,30.9,24,29.99,10.0,NW,6.9,-,N/A,,Clear,310,2012-10-07 19:53:00
1:53 PM,73.9,30.9,21,29.97,10.0,Variable,4.6,-,N/A,,Clear,0,2012-10-07 20:53:00
2:53 PM,77.0,30.0,18,29.94,10.0,WSW,4.6,-,N/A,,Clear,240,2012-10-07 21:53:00
3:53 PM,78.1,28.9,17,29.92,10.0,Variable,4.6,-,N/A,,Clear,0,2012-10-07 22:53:00
4:53 PM,78.1,34.0,20,29.91,10.0,Calm,Calm,-,N/A,,Clear,0,2012-10-07 23:53:00
5:53 PM,72.0,34.0,25,29.90,10.0,East,6.9,-,N/A,,Clear,100,2012-10-08 00:53:00
6:53 PM,68.0,37.9,33,29.91,10.0,East,4.6,-,N/A,,Clear,100,2012-10-08 01:53:00
7:53 PM,63.0,44.1,50,29.91,10.0,East,4.6,-,N/A,,Clear,80,2012-10-08 02:53:00
8:53 PM,61.0,37.9,42,29.91,10.0,Calm,Calm,-,N/A,,Clear,0,2012-10-08 03:53:00
9:53 PM,55.9,37.0,49,29.91,10.0,Calm,Calm,-,N/A,,Clear,0,2012-10-08 04:53:00
10:53 PM,52.0,37.0,57,29.92,10.0,Calm,Calm,-,N/A,,Clear,0,2012-10-08 05:53:00
11:53 PM,52.0,39.0,61,29.93,10.0,Calm,Calm,-,N/A,,Clear,0,2012-10-08 06:53:00